IRIDIUM 170 (43930 NORAD) Tracking and Keplerian Element Data

This shows tracking and keplerian element data for the satellite.

Feedback or suggestion? Click here.




ElementValue
Catalog43930
NameIRIDIUM 170
Epoch Orbit6555
Epoch Day92.08282899
Epoch Year2020
RAAN221.4049
Inclination86.6147
Eccentricity0.0002664
Argument of Perigee97.3612
Mean Anonmoly262.7908
Mean Motion14.72256198
Decay Rate1.43E-06
L11 43930U 19002J 20092.08282899 .00000143 00000-0 18825-4 0 9996
L22 43930 86.6147 221.4049 0002664 97.3612 262.7908 14.72256198 65551

Live tracking and technical data element details for IRIDIUM 170 (NORAD 43930). IRIDIUM 170 can be tracked NOW for your location showing map with azimuth and elevation plus other details from your city location.

Track the satellite on the map from your city or location and see movement details for azimuth, elevation, latitude, longitude, range, height, and movement on the map or in text.







IsCatalogInMostPopularTable: catalog: 43930, numindb: 329
Update: records affected: 1



GetName: 43930 IRIDIUM 170

Hit Count: updated at: Fri, 03 Apr 2020 08:39:16 GMT